Regional Weather Roundup
Issued by NWS

Home | Current Version | Previous Version | Text Only | Print | Product List | Glossary Off
Versions: 1 2 3 4 5 6 7 8 9 10 11 12 13 14 15 16 17 18 19 20 21 22 23 24 25 26 27 28 29 30 31 32 33 34 35 36 37 38 39 40 41 42 43 44 45 46 47 48 49 50

000
ASUS43 KDTX 170401
RWRMI
MICHIGAN HOURLY REGIONAL WEATHER ROUNDUP
NATIONAL WEATHER SERVICE DETROIT/PONTIAC MI
1200 AM EDT THU APR 17 2014

NOTE: "FAIR" INDICATES FEW OR NO CLOUDS BELOW 12,000 FEET WITH NO
SIGNIFICANT WEATHER AND/OR OBSTRUCTION TO VISIBILITY.

MIZ047>049-052>055-059>063-066>070-074>076-081>083-170500-
SOUTHEAST LOWER MICHIGAN

CITY           SKY/WX    TMP DP  RH WIND       PRES   REMARKS
ADRIAN         CLEAR     33  28  81 E10       30.35F WCI  25
ALMA           MOCLDY    35  19  52 E10G16    30.34S WCI  27
ANN ARBOR      CLEAR     32  22  66 E8        30.36F WCI  25
BAD AXE        PTCLDY    33  19  57 SE6       30.42S WCI  27
CARO           MOCLDY    35  16  47 E8        30.39F WCI  28
DETROIT CITY   CLEAR     36  21  54 E13       30.40F WCI  27
DETROIT        PTCLDY    33  21  61 E10G18    30.39F WCI  25
FLINT          CLEAR     34  20  56 E12       30.36F WCI  25
GROSSE ILE     CLEAR     34  25  69 E10       30.38S WCI  26
HILLSDALE      CLEAR     33  28  81 E13       30.30S WCI  24
HOWELL         CLEAR     32  19  59 E8        30.34F WCI  25

CITY           SKY/WX    TMP DP  RH WIND       PRES   REMARKS
JACKSON        CLEAR     32  22  66 E10       30.32F WCI  24
LAMBERTVILLE   CLEAR     36  32  87 E9        30.36F WCI  29
LANSING        CLEAR     35  21  56 SE13      30.32F WCI  26
LAPEER         FAIR      32  18  58 SE5       30.39F WCI  27
MASON          CLEAR     33  22  64 SE12      30.31F WCI  24
MONROE         CLEAR     36  28  75 E8G17     30.36S WCI  29
MT. CLEMENS    CLEAR     33  18  55 E16G24    30.39F WCI  22
PONTIAC        PTCLDY    32  18  56 SE12      30.36F WCI  23
PORT HOPE        N/A     35  23  61 SE9       30.41F WCI  28
PORT HURON     CLEAR     30  18  59 E10       30.43F WCI  21
TRI CITIES     PTCLDY    35  20  54 SE16      30.36F WCI  25
TROY           CLEAR     33  20  57 E9        30.40F WCI  26
SAGINAW HB     PTCLDY    34  21  60 E9        30.37F WCI  26
YPSILANTI      CLEAR     34  21  59 E13       30.38F WCI  25
$$
MIZ043>046-050>051-056>058-064>065-071>073-077>080-170500-
SOUTHWEST LOWER MICHIGAN

CITY           SKY/WX    TMP DP  RH WIND       PRES   REMARKS
BATTLE CREEK   MOCLDY    36  25  64 SE10      30.28F WCI  28
BENTON HARBOR  CLOUDY    41  26  55 SE16G26   30.21S
BIG RAPIDS     CLOUDY    37  23  57 SE21G26   30.27F WCI  27
COLDWATER      PTCLDY    34  27  75 SE10G18   30.28F WCI  26
FREMONT        MOCLDY    40  22  50 SE15G24   30.25S WCI  31
HOLLAND        CLOUDY    42  26  53 SE18G24   30.23F
GRAND RAPIDS   CLOUDY    39  26  59 SE16G24   30.27F WCI  30
IONIA          FAIR      36  25  64 E14       30.29F WCI  27
KALAMAZOO      MOCLDY    38  27  64 SE14G21   30.27S WCI  30
LUDINGTON      CLOUDY    40  22  48 SE20      30.21R WCI  31
MARSHALL       PTCLDY    32  25  73 E9G17     30.29F WCI  25
MOUNT PLEASANT CLOUDY    37  22  55 E10G16    30.33S WCI  29
MUSKEGON       CLOUDY    42  23  46 SE21G29   30.22F
SOUTH HAVEN    CLOUDY    42  26  52 SE14G24   30.22S
$$
MIZ016>042-170500-
NORTHERN LOWER MICHIGAN

CITY           SKY/WX    TMP DP  RH WIND       PRES   REMARKS
ALPENA         CLOUDY    33  23  66 SE14      30.39F WCI  23
BEAVER ISLAND  CLOUDY    32  30  93 NE9       30.30F WCI  24
BELLAIRE       CLOUDY    38  21  51 SE8G22    30.29S WCI  32
CADILLAC       CLOUDY    34  23  64 SE14      30.26F WCI  24
CHARLEVOIX     CLOUDY    37  25  63 SE10      30.31S WCI  29
FRANKFORT      CLOUDY    40  22  48 SE15      30.22R WCI  32
GAYLORD        CLOUDY    31  22  69 SE17G23   30.30S WCI  19
GRAYLING       CLOUDY    33  24  68 SE10      30.32F WCI  25
HARBOR SPRINGS CLOUDY    34  27  75 E6        30.31R WCI  29
HOUGHTON LAKE  CLOUDY    34  24  67 SE10      30.32S WCI  26
MANISTEE       CLOUDY    41  19  42 SE12G21   30.22R
OSCODA         MOCLDY    36  23  58 SE14      30.41S WCI  27
PELLSTON       CLOUDY    33  24  69 SE20G25   30.32F WCI  21
ROGERS CITY    CLOUDY    32  26  78 SE10      30.37F WCI  23
TRAVERSE CITY  CLOUDY    39  20  46 SE8       30.26S WCI  33
$$
MIZ007>008-015-170500-
EASTERN UPPER MICHIGAN

CITY           SKY/WX    TMP DP  RH WIND       PRES   REMARKS
KINROSS        CLOUDY    30  30 100 SE7       30.38R WCI  23
MACKINAC ISLAN CLOUDY    32  29  91 E12G18    30.33S WCI  23
NEWBERRY       CLOUDY    28  27  96 NE8       30.35S WCI  19
S. S. MARIE    LGT SNOW  29  26  89 E7        30.40R VSB 3/4 WCI  22
MUNISING         N/A     30  25  81 E6        30.31F WCI  24
$$
MIZ004>006-011>014-085-170500-
CENTRAL UPPER MICHIGAN

CITY           SKY/WX    TMP DP  RH WIND       PRES   REMARKS
MANISTIQUE     CLOUDY    30  28  94 NE9       30.31S WCI  22
ESCANABA       CLOUDY    30  27  86 E8        30.27S WCI  23
MENOMINEE      CLOUDY    34  28  80 E10       30.21F WCI  26
SAWYER-GWINN   LGT SNOW  28  26  93 E12       30.25F WCI  18
$$
MIZ001>003-009>011-084-170500-
WESTERN UPPER MICHIGAN

CITY           SKY/WX    TMP DP  RH WIND       PRES   REMARKS
IRON MOUNTAIN  LGT SNOW  30  27  88 E7        30.21S VSB 3/4 WCI  23
HOUGHTON       LGT SNOW  28  25  88 E20G25    30.24F VSB 1   WCI  15
COPPER HARBOR    N/A     29  26  89 S7        30.32S WCI  22
IRONWOOD       CLOUDY    28  25  86 E9        30.08F WCI  20
$$

ABBREVIATIONS USED IN REMARKS
   TC - TEMPERATURE IN CELSIUS
  WCI - WIND CHILL INDEX
   HX - HEAT INDEX
  VSB - VISIBILITY




USA.gov is the U.S. government's official web portal to all federal, state and local government web resources and services.